Flag for Cook Islands Weather past 2 weeks in Rarotonga, Cook Islands

Now
81 °F

Passing clouds.


Feels Like: 84 °F
Forecast: 71 / 79 °F
Wind: 6 mph from Southwest

Location: Rarotonga


UV Index: 7 (High)

Visibility: N/A


Pressure: 29.89 "Hg

Humidity: 70%

Dew point: 70 °F

Location of RarotongaLocation

Historic Weather in Rarotonga

°F

Rarotonga temperature yesterday

Maximum temperature yesterday: 82 °F (at 2:00 PM)
Minimum temperature yesterday: 68 °F (at 7:00 AM)
Average temperature yesterday: 75 °F

Past Weeks' High & Low Weather Summary

 TemperatureHumidityPressure
High88 °F (Apr 3, 1:00 PM)100% (Apr 4, 5:00 PM)30.04 "Hg (Apr 4, 5:00 PM)
Low43 °F (Apr 4, 5:00 PM)62% (Apr 10, 12:00 PM)29.74 "Hg (Apr 16, 4:00 AM)
Average79 °F80%29.91 "Hg
* Reported Apr 3 10:00 AM — Apr 18 10:00 AM, Rarotonga, Weather by CustomWeather, © 2014

Note: Actual official high and low records may vary slightly from our data, if they occured in-between our weather recording intervals... More about our weather records

Advertising

Historic Weather Conditions — Data for Previous 24 hours

 ConditionsComfort  
Time TempWeatherWind HumidityBarometerVisibility
10:00 AM
Apr 18
81 °FPassing clouds.6 mph70%29.89 "HgN/A
9:00 AM79 °FPassing clouds.5 mph74%29.89 "HgN/A
8:00 AM73 °FPassing clouds.5 mph89%29.86 "HgN/A
7:00 AM70 °FPassing clouds.3 mph94%29.86 "HgN/A
6:00 AM70 °FPassing clouds.3 mph94%29.83 "HgN/A
5:00 AM70 °FPassing clouds.No wind94%29.83 "HgN/A
4:00 AM70 °FPassing clouds.1 mph94%29.83 "HgN/A
2:00 AM70 °FPassing clouds.1 mph94%29.83 "HgN/A
1:00 AM70 °FPassing clouds.1 mph94%29.86 "HgN/A
12:00 AM70 °FPassing clouds.No wind88%29.86 "HgN/A
11:00 PM
Apr 17
70 °FPassing clouds.2 mph88%29.86 "HgN/A
10:00 PM70 °FPassing clouds.2 mph94%29.86 "HgN/A
9:00 PM72 °FPassing clouds.2 mph88%29.83 "HgN/A
8:00 PM73 °FPassing clouds.2 mph83%29.83 "HgN/A
7:00 PM75 °FPassing clouds.No wind83%29.80 "HgN/A
6:00 PM81 °FScattered clouds.6 mph66%29.77 "HgN/A
5:00 PM81 °FPassing clouds.8 mph66%29.77 "HgN/A
4:00 PM81 °FPassing clouds.8 mph66%29.74 "HgN/A
3:00 PM81 °FPassing clouds.14 mph66%29.74 "HgN/A
2:00 PM82 °FPassing clouds.8 mph62%29.77 "HgN/A
1:00 PM81 °FPassing clouds.10 mph74%29.80 "HgN/A
12:00 PM81 °FPassing clouds.5 mph70%29.80 "HgN/A
11:00 AM81 °FPassing clouds.12 mph70%29.83 "HgN/A
Weather by CustomWeather, © 2014

See weather overview